Location: Berg
(47.2344°N, 9.5296°E)
Time: 21:13:35
(UTC+00:00)

N. Korean satellite - Pass Details

Date: 20 September 2021
Orbit: 450 x 495 km, 97.3° (Epoch: 25 October)

Event Time Altitude Azimuth Distance (km) Brightness Sun altitude
Rises 04:17:07 0° 19° (NNE) 2,507 10.6 -9.1°
Reaches altitude 10° 04:19:15 10° 28° (NNE) 1,634 9.8 -8.7°
Maximum altitude 04:22:33 38° 98° (E) 737 8.2 -8.2°
Drops below altitude 10° 04:25:52 10° 168° (SSE) 1,645 9.3 -7.6°
Sets 04:28:02 0° 176° (S) 2,527 10.1 -7.2°
